Flag for Fiji Weather past 2 weeks in Lautoka, Fiji

Now
75 °F

Partly cloudy.


Feels Like: 74 °F
Forecast: 77 / 86 °F
Wind: 5 mph from North

Location: Nandi

Current Time: Dec 21, 2014 at 6:35:49 AM

Latest Report: Dec 21, 2014 at 6:00 AM


Visibility: N/A

Pressure: 29.74 "Hg

Humidity: 94%

Dew point: 73 °F

Location of LautokaLocation

Historic Weather in Lautoka — Graph

°F

Lautoka temperature yesterday

Maximum temperature yesterday: 88 °F (at 11:00 AM)
Minimum temperature yesterday: 75 °F (at 5:00 AM)
Average temperature yesterday: 80 °F

Past Weeks' High & Low Weather Summary

 TemperatureHumidityPressure
High91 °F (Dec 13, 2:00 PM)100% (Dec 12, 11:00 PM)29.92 "Hg (Dec 12, 11:00 PM)
Low72 °F (Dec 10, 5:00 AM)46% (Dec 13, 3:00 PM)29.74 "Hg (Dec 15, 5:00 PM)
Average81 °F77%29.84 "Hg
* Reported Dec 6 5:00 AM — Dec 21 5:00 AM, Lautoka, Weather by CustomWeather, © 2014

Note: Actual official high and low records may vary slightly from our data, if they occured in-between our weather recording intervals... More about our weather records

Advertising

Lautoka weather history for previous 24 hours

 ConditionsComfort  
Time TempWeatherWind HumidityBarometerVisibility
5:00 AM
Dec 21
75 °FPartly cloudy.6 mph94%29.74 "HgN/A
4:00 AM75 °FPartly cloudy.5 mph94%29.74 "HgN/A
3:00 AM75 °FPartly cloudy.5 mph94%29.77 "HgN/A
2:00 AM75 °FPartly cloudy.3 mph94%29.77 "HgN/A
1:00 AM75 °FPartly cloudy.3 mph94%29.80 "HgN/A
12:00 AM75 °FPartly cloudy.No wind100%29.80 "HgN/A
11:00 PM
Dec 20
77 °FPartly cloudy.No wind94%29.80 "HgN/A
10:00 PM77 °FPartly cloudy.No wind94%29.80 "HgN/A
9:00 PM79 °FPartly cloudy.3 mph89%29.77 "HgN/A
8:00 PM79 °FPartly cloudy.3 mph89%29.77 "HgN/A
7:00 PM79 °FBroken clouds.6 mph94%29.74 "HgN/A
6:00 PM79 °FSprinkles. Broken clouds.8 mph94%29.74 "HgN/A
5:00 PM82 °FBroken clouds.8 mph84%29.74 "HgN/A
4:00 PM77 °FSprinkles. Broken clouds.3 mph100%29.74 "HgN/A
3:00 PM82 °FThunderstorms. Broken clouds.8 mph79%29.77 "HgN/A
2:00 PM86 °FScattered clouds.15 mph70%29.74 "HgN/A
1:00 PM86 °FScattered showers. Scattered clouds.15 mph66%29.77 "HgN/A
12:00 PM86 °FScattered clouds.12 mph66%29.77 "HgN/A
11:00 AM88 °FPassing clouds.5 mph59%29.77 "HgN/A
10:00 AM86 °FPassing clouds.7 mph62%29.80 "HgN/A
9:00 AM84 °FPassing clouds.8 mph62%29.80 "HgN/A
8:00 AM81 °FScattered clouds.9 mph74%29.80 "HgN/A
7:00 AM77 °FPartly sunny.9 mph83%29.77 "HgN/A
6:00 AM75 °FPassing clouds.3 mph89%29.77 "HgN/A
Weather by CustomWeather, © 2014

See weather overviewHow to use our weather pages